Regional Weather Roundup
Issued by NWS

Home | Current Version | Previous Version | Graphics & Text | Print | Product List | Glossary Off
Versions: 1 2 3 4 5 6 7 8 9 10 11 12 13 14 15 16 17 18 19 20 21 22 23 24 25 26 27 28 29 30 31 32 33 34 35 36 37 38 39 40 41 42 43 44 45 46 47 48 49 50

000
ASUS43 KLSX 231659
RWRMO

WEATHER SUMMARY FOR MISSOURI
NATIONAL WEATHER SERVICE SPRINGFIELD MO
1200 PM CDT SAT AUG 23 2014

NOTE: "FAIR" INDICATES FEW OR NO CLOUDS BELOW 12,000 FEET WITH NO
       SIGNIFICANT WEATHER AND/OR OBSTRUCTIONS TO VISIBILITY.
       CURRENT SKY AND/OR WEATHER CONDITIONS ARE NOT AVAILABLE FOR
       CHILLICOTHE AND FARMINGTON.

MOZ001>031-035>038-043-044-053-054-231800-
...NORTHERN AND WESTERN MISSOURI...

CITY           SKY/WX    TMP DP  RH WIND       PRES   REMARKS
KANSAS CTY INT MOSUNNY   88  70  55 S10       29.91F HX  93
KANSAS C DTWN  SUNNY     89  69  51 S6        29.89F HX  93
LEE`S SUMMIT   SUNNY     88  71  57 S9        29.92F HX  94
ST JOSEPH      SUNNY     87  72  60 S10G21    29.89S HX  93
KIRKSVILLE     MOSUNNY   85  75  72 SE10      29.94F HX  93

$$
MOZ066>068-077>081-088>096-101>105-231800-
...SOUTHWEST MISSOURI...

CITY           SKY/WX    TMP DP  RH WIND       PRES   REMARKS
SPRINGFIELD    SUNNY     94  64  37 W7        30.00F HX  95
JOPLIN         SUNNY     93  66  40 SW10G20   29.98F HX  96

$$
MOZ032>034-039>042-045>050-055>058-069>072-231800-
...CENTRAL MISSOURI...

CITY           SKY/WX    TMP DP  RH WIND       PRES   REMARKS
COLUMBIA       MOSUNNY   90  73  57 CALM      29.97S HX  98
JEFFERSON CITY MOSUNNY   91  70  49 W7        29.95S HX  96
ROLLA          SUNNY     91  71  51 SW8       29.98F HX  97
SEDALIA        MOSUNNY   89  72  56 SW8       29.95F HX  96
OSAGE BEACH    SUNNY     91  70  49 SW7       29.96F HX  97

$$
MOZ051-052-059>065-231800-
...EAST CENTRAL MISSOURI...

CITY           SKY/WX    TMP DP  RH WIND       PRES   REMARKS
ST LOUIS INTL  MOSUNNY   96  72  45 W7        29.96F HX 104
SPIRIT OF STL  MOSUNNY   92  72  51 CALM      29.94F HX  99
ST CHARLES     SUNNY     92  73  53 NW6       29.94F HX 100

$$
MOZ072>076-082>087-097>100-106>115-231800-
...SOUTH CENTRAL AND SOUTHEAST MISSOURI...

CITY           SKY/WX    TMP DP  RH WIND       PRES   REMARKS
CAPE GIRARDEAU SUNNY     90  78  68 S3        29.97F HX 104
FARMINGTON     SUNNY     93  68  43 CALM      30.01F HX  97
POPLAR BLUFF   SUNNY     93  71  48 S6        29.97F HX 100
WEST PLAINS    SUNNY     91  70  49 VRB5      30.04F HX  96

$$


USA.gov is the U.S. government's official web portal to all federal, state and local government web resources and services.